Home > Weather > Escondido > Past weeks

Flag for U.S.A. Weather for the Past 2 Weeks in Escondido, California, U.S.A.

Now
69 °F

Sunny.


Feels Like: 69 °F
Forecast: 53 / 85 °F
Wind: 13 mph from East

Location: Ramona Airport

Current Time: Feb 8, 2016 at 9:08:27 AM

Latest Report: Feb 8, 2016 at 7:53 AM


Visibility: 10 mi

Pressure: 30.11 "Hg

Humidity: 19%

Dew point: 25 °F

Location of EscondidoLocation

Historic Weather in Escondido — Graph

°F

Escondido Temperature Yesterday

Maximum temperature yesterday: 79 °F (at 12:53 PM)
Minimum temperature yesterday: 41 °F (at 3:53 AM)
Average temperature yesterday: 66 °F

High & Low Weather Summary for the Past Weeks

 TemperatureHumidityPressure
High79 °F (Feb 7, 12:53 PM)100% (Jan 24, 7:53 AM)30.34 "Hg (Jan 24, 7:53 AM)
Low27 °F (Feb 2, 4:53 AM)11% (Feb 7, 12:53 PM)29.64 "Hg (Jan 31, 2:53 PM)
Average53 °F50%30.12 "Hg
* Reported Jan 24 7:04 AM — Feb 8 7:53 AM, Escondido, Weather by CustomWeather, © 2016

Note: Actual official high and low records may vary slightly from our data, if they occured in-between our weather recording intervals... More about our weather records

Advertising

Escondido Weather History for the Previous 24 Hours

 ConditionsComfort  
Time TempWeatherWind HumidityBarometerVisibility
7:53 AM
Mon, Feb 8
69 °FSunny.13 mph19%30.11 "Hg10 mi
6:53 AM67 °FSunny.10 mph18%30.10 "Hg10 mi
5:53 AM66 °FClear.13 mph19%30.08 "Hg10 mi
4:53 AM66 °FClear.6 mph19%30.07 "Hg10 mi
3:53 AM68 °FClear.15 mph17%30.06 "Hg10 mi
2:53 AM60 °FClear.10 mph26%30.07 "Hg10 mi
1:53 AM59 °FClear.No wind26%30.09 "Hg10 mi
12:53 AM63 °FClear.8 mph18%30.10 "Hg10 mi
11:53 PM
Sun, Feb 7
66 °FClear.10 mph16%30.11 "Hg10 mi
10:53 PM68 °FClear.16 mph15%30.10 "Hg10 mi
9:53 PM69 °FClear.15 mph14%30.09 "Hg10 mi
8:53 PM69 °FClear.13 mph14%30.09 "Hg10 mi
7:53 PM70 °FClear.12 mph13%30.09 "Hg10 mi
6:53 PM69 °FClear.12 mph14%30.08 "Hg10 mi
5:53 PM72 °FClear.13 mph12%30.08 "Hg10 mi
4:53 PM74 °FSunny.16 mph12%30.08 "Hg10 mi
3:53 PM78 °FSunny.14 mph12%30.07 "Hg10 mi
2:53 PM78 °FSunny.21 mph11%30.07 "Hg10 mi
1:53 PM79 °FSunny.18 mph11%30.08 "Hg10 mi
12:53 PM79 °FSunny.15 mph11%30.09 "Hg10 mi
11:53 AM78 °FSunny.14 mph12%30.10 "Hg10 mi
10:53 AM76 °FSunny.18 mph13%30.11 "Hg10 mi
9:53 AM75 °FSunny.14 mph14%30.12 "Hg10 mi
Weather by CustomWeather, © 2016

See weather overviewHow to use our weather pages